Location: Albany
(35.0170°S, 117.8920°E)
Time: 10:07:03
(UTC+08:00)

S-56A Canister/Altair - Pass Details

Date: 29 January 2021
Orbit: 632 x 2501 km, 38.9° (Epoch: 25 February)

Event Time Altitude Azimuth Distance (km) Brightness Sun altitude
Rises 13:01:02 0° 289° (WNW) 5,176 12.0 70.7°
Reaches altitude 10° 13:04:03 10° 288° (WNW) 4,392 11.8 70.4°
Maximum altitude 13:16:59 87° 198° (SSW) 2,406 11.6 68.9°
Drops below altitude 10° 13:32:27 10° 106° (ESE) 5,137 11.6 66.7°
Sets 13:36:19 0° 105° (ESE) 6,063 11.9 66.1°
